Regional Weather Roundup
Issued by NWS Kansas City/Pleasant Hill, MO

Home | Current Version | Previous Version | Graphics & Text | Print | Product List | Glossary Off
Versions: 1 2 3 4 5 6 7 8 9 10 11 12 13 14 15 16 17 18 19 20 21 22 23 24 25 26 27 28

000
ASUS43 KEAX 230410
RWREAX

WEATHER ROUNDUP FOR EASTERN KANSAS AND NORTHWEST MISSOURI
NATIONAL WEATHER SERVICE KANSAS CITY/PLEASANT HILL MO
1100 PM CDT WED MAR 22 2017

KSZ040-057-103>105-MOZ028-029-037-043-230500-
...KANSAS CITY METROPOLITAN AREA...

CITY           SKY/WX    TMP DP  RH WIND       PRES   REMARKS
K.C. INTL      CLOUDY    50  26  39 E15       30.18F
K.C. DOWNTOWN  CLOUDY    53  24  32 E13G23    30.18F
LEES SUMMIT    CLOUDY    51  25  36 E13G21    30.19F
OLATHE - IXD   CLOUDY    51  27  39 E15G22    30.17F
OLATHE - OJC   CLOUDY    50  27  40 SE15G23   30.17F
LAWRENCE       CLOUDY    53  28  38 E15G25    30.16F

$$

MOZ001>008-011>017-020>025-030>033-038>040-044>046-053-054-230500-
...NORTHERN AND CENTRAL MISSOURI...

CITY           SKY/WX    TMP DP  RH WIND       PRES   REMARKS
ST. JOSEPH     CLOUDY    49  26  41 SE10      30.20F
MOSBY          CLOUDY    50  23  34 E14G20    30.21F
WARRENSBURG    CLOUDY    50  23  34 E14       30.22S
WHITEMAN AFB   MOCLDY    50  23  35 SE10      30.21F
CLINTON        CLOUDY    52  27  37 E12G18    30.21F
SEDALIA        CLOUDY    50  22  33 E18       30.24F
WARSAW         NOT AVBL
CHILLICOTHE      N/A     46  16  30 SE10G18   30.26F
KIRKSVILLE     CLOUDY    42  14  32 SE13      30.30F

$$

MOZ041-047>049-056>058-063>065-088>090-097-230500-
...EASTERN AND SOUTHERN MISSOURI...

CITY           SKY/WX    TMP DP  RH WIND       PRES   REMARKS
ST. LOUIS INTL CLOUDY    46  19  34 E12       30.37F
SPIRIT OF STL  CLOUDY    46  19  34 E9        30.36S
COLUMBIA       CLOUDY    46  19  34 SE16G23   30.29S
JEFFERSON CITY CLOUDY    49  22  34 E14       30.30S
ROLLA          CLOUDY    45  23  42 E16       30.27F
OSAGE BEACH    CLOUDY   N/A N/A N/A E12G17    30.27S
SPRINGFIELD    CLOUDY    54  29  38 SE15G29   30.20F
JOPLIN         CLOUDY    55  38  52 SE15      30.17F
WEST PLAINS    CLOUDY    51  27  39 SE10      30.30R

$$

IAZ060-094-KSZ022-034>040-054-083-096-NEZ052-066-093-230500-
...KANSAS...SOUTHEAST NEBRASKA AND IOWA...

CITY           SKY/WX    TMP DP  RH WIND       PRES   REMARKS
TOPEKA         CLOUDY    53  30  41 SE15G22   30.15S
MANHATTAN      CLOUDY    55  30  38 SE8       30.12S
EMPORIA        CLOUDY    54  35  48 SE13      30.11F
CHANUTE        CLOUDY    55  39  54 SE15      30.14F
WICHITA        CLOUDY    53  39  59 SE14      30.08S
OMAHA          CLOUDY    46  24  42 SE20G29   30.18S
LINCOLN        CLOUDY    52  26  36 SE15G25   30.14F
FALLS CITY     CLOUDY    50  26  39 SE12      30.16F
LAMONI         CLOUDY    43  15  32 SE13G23   30.24F
DES MOINES     CLOUDY    43  18  36 SE14      30.26F

$$





USA.gov is the U.S. government's official web portal to all federal, state and local government web resources and services.